STARLINK-34338, 64151

Orbit data source: Space-Track

STARLINK-34338, 64151 is a payload satellite owned by SpaceX/Seattle (US) in SSO that was launched on Tue, 27 May 2025 UTC via an FALCON 9 launch vehicle from the Air Force Western Test Range (AFWTR). Payload-class satellites include a variety of spacecraft equipped with specific instruments for various scientific and technological missions. These include communications satellites like Starlink; space stations such as the ISS; scientific satellites like the Hubble; Earth observation satellites from companies like Planet Labs, Umbra, and HawkEye 360; GPS; miniature CubeSats for education and research; and military/defense satellites.

Loading next visibility...
Identifier
64151, 2025-112F
Orbit
SSO
Country
Flag of USUS
Related business
Manufacturer
SpaceX/Seattle
Mission
Operational Commercial Communications
Bus & Motor
STARLINK V2MO, Unknown motor
Mass
575 kg wet, ~530 kg dry
Launch date (UTC)
2025-05-27 (1 year ago)
Launch vehicle
FALCON 9
Launch site
Air Force Western Test Range (AFWTR)
Object type
Payload
Rocket body
Debris
Shape & HBR
Box + 2 Pan, 17.7 m
Radar Cross Section
36.964 m², Large (>1 m²)

Expand to show TLE details & history
Last TLE update: 8 hours ago

TLE from 8 hours ago
0 STARLINK-34338
1 64151U 25112F   26145.38675029  .00002760  00000-0  19525-3 0  9996
2 64151  97.4473 196.8155 0001742 146.7367 213.3970 15.05658250 54850
Epoch: 2026-05-25T09:16Z
TLE epoch observation values (Epoch: 2026-05-25T09:16:55.225Z)
Latitude
Longitude
174.61012°
Altitude
553.563 km
Speed
7.584 km/s
True Right ascension
13h 07m 15s
True Declination
0° 00' 00"
Sunlit
Object was in full shadow at epoch
Visualization orbit readout
Latitude
Unknown
Longitude
Unknown
Altitude
Unknown
Speed
Unknown
Apparent Right ascension
Unknown
Apparent Declination
Unknown
Sunlit
N/A
Visualization observer readout
Local Sidereal Time
02:48:06
Azimuth
Unknown
Elevation
Unknown
Doppler factor
Unknown
Orbital elements
Apogee altitude
547.679 km
Perigee altitude
545.266 km
Semi-major axis
6,924.61 km
Eccentricity
0.00017
Inclination
97.4473°
RAAN
196.8155°
Arg. of periapsis
146.7367°
True anomaly
213.38601°
Mean anomaly
213.397°
Eccentric anomaly
213.39151°
Mean motion
3.76661 °/min
Orbital period
95.58 mins
BSTAR
0.00019525
Loading maneuver chart data...
Computing Atmospheric mass density...
Loading historical data...
Loading historical data...
Loading historical data...
Loading historical data...
Loading historical data...
Loading historical data...
Loading historical data...

Documentation

Showing up to 5 results
|